1500372000.02,15961,17.75,74656.5,9.89,4.27,4.67,0,*7B
1500372001.25,15962,17.75,74658.0,9.89,4.23,4.59,0,*71
1500372002.48,15963,17.75,74658.3,9.89,3.97,4.45,0,*75
1500372003.71,15964,17.75,74660.0,9.89,4.33,4.79,0,*74
1500372004.95,15965,17.75,74656.5,9.89,4.27,4.71,0,*78
1500372006.15,15966,17.75,74656.0,9.89,4.45,4.85,0,*74
1500372007.39,15967,17.75,74656.0,9.89,4.57,4.97,0,*75
1500372008.59,15968,17.75,74658.5,9.91,4.49,4.93,0,*78
1500372009.82,15969,17.75,74656.3,9.89,4.23,4.59,0,*7A
1500372011.01,15970,17.75,74656.8,9.91,3.97,4.49,0,*72
1500372012.22,15971,17.75,74660.0,9.91,4.45,4.93,0,*7C
1500372013.43,15972,17.75,74658.0,9.91,4.57,4.97,0,*78
1500372014.61,15973,17.75,74658.8,9.91,3.89,4.37,0,*77
1500372015.82,15974,17.75,74662.3,9.91,4.23,4.67,0,*72
1500372017.05,15975,17.75,74660.5,9.89,4.45,4.97,0,*75
1500372018.28,15976,17.75,74658.8,9.89,4.57,5.05,0,*7F
1500372019.49,15977,17.75,74656.5,9.89,4.57,5.15,0,*7F
1500372020.72,15978,17.75,74658.5,9.89,4.45,4.93,0,*7C
1500372021.93,15979,17.75,74658.3,9.89,4.33,4.85,0,*7B
1500372023.13,15980,17.75,74662.5,9.89,4.33,4.81,0,*79
1500372024.33,15981,17.75,74662.0,9.89,4.45,4.81,0,*79
1500372025.56,15982,17.75,74660.5,9.89,4.57,4.93,0,*7A
1500372026.79,15983,17.75,74660.0,9.89,4.57,4.97,0,*7F
1500372028.03,15984,17.75,74658.5,9.89,4.33,4.71,0,*72
1500372029.21,15985,17.75,74658.0,9.87,4.11,4.45,0,*7A
1500372030.42,15986,17.75,74662.5,9.87,4.33,4.63,0,*7D
1500372031.65,15987,17.75,74660.3,9.85,4.41,4.71,0,*78
1500372032.85,15988,17.75,74660.3,9.87,4.45,4.75,0,*75
1500372034.06,15989,17.75,74660.8,9.87,4.53,4.67,0,*70
1500372035.29,15990,17.75,74662.0,9.85,4.63,4.85,0,*75
1500372036.49,15991,17.75,74656.3,9.83,4.71,4.89,0,*7D
1500372037.73,15992,17.75,74662.0,9.83,4.59,4.75,0,*77
1500372038.96,15993,17.75,74656.3,9.83,4.63,4.71,0,*7B
1500372040.2,15994,17.75,74658.8,9.81,4.71,4.85,0,*76
1500372041.41,15995,17.75,74656.3,9.83,4.53,4.63,0,*7D
1500372042.63,15996,17.75,74658.5,9.81,4.57,4.67,0,*7C
1500372043.89,15997,17.75,74656.5,9.81,4.59,4.75,0,*70
1500372045.12,15998,17.75,74662.5,9.79,4.67,4.67,0,*76
1500372046.38,15999,17.75,74662.0,9.81,4.67,4.79,0,*7F
1500372047.58,16000,17.75,74658.8,9.79,4.75,4.85,0,*72
1500372048.79,16001,17.75,74660.0,9.79,4.71,4.85,0,*77
1500372049.97,16002,17.75,74662.5,9.79,4.81,4.85,0,*7B
1500372051.21,16003,17.75,74656.3,9.79,4.71,4.71,0,*7E
1500372052.46,16004,17.75,74660.5,9.77,4.63,4.63,0,*77
1500372053.71,16005,17.75,74658.5,9.77,4.67,4.71,0,*71
1500372054.97,16006,17.75,74658.0,9.77,4.67,4.71,0,*72
1500372056.22,16007,17.75,74658.0,9.77,4.67,4.67,0,*74
1500372057.47,16008,17.75,74656.5,9.77,4.63,4.63,0,*7B
1500372058.69,16009,17.75,74662.0,9.77,4.57,4.63,0,*7D
1500372059.95,16010,17.75,74658.5,9.77,4.67,4.71,0,*75
1500372061.12,16011,17.75,74658.8,9.71,4.49,4.53,0,*7E
1500372062.32,16012,17.75,74662.8,9.71,4.27,4.31,0,*71
1500372063.53,16013,17.75,74658.5,9.73,3.93,3.89,0,*7E
1500372064.7,16014,17.75,74660.5,9.71,4.15,4.15,0,*70
1500372065.95,16015,17.75,74658.8,9.69,4.01,4.01,0,*78
1500372067.15,16016,17.75,74660.0,9.67,4.01,3.93,0,*79
1500372068.33,16017,17.75,74662.0,9.67,4.33,4.27,0,*71
1500372069.55,16018,17.75,74658.8,9.65,4.41,4.31,0,*7E
1500372070.76,16019,17.75,74660.3,9.65,4.23,4.23,0,*78
1500372071.93,16020,17.75,74662.0,9.67,4.27,4.19,0,*7D
1500372073.14,16021,17.75,74662.0,9.65,4.53,4.53,0,*73
1500372074.39,16022,17.75,74660.0,9.65,4.67,4.59,0,*7D
1500372075.62,16023,17.75,74662.3,9.63,4.79,4.79,0,*77
1500372076.84,16024,17.75,74658.8,9.65,4.93,4.89,0,*7D
1500372078.07,16025,17.75,74660.0,9.65,4.79,4.81,0,*70
1500372079.3,16026,17.75,74656.5,9.63,4.63,4.75,0,*75
1500372080.52,16027,17.75,74658.3,9.63,4.67,4.79,0,*7C
1500372081.72,16028,17.75,74658.8,9.63,4.57,4.67,0,*7F
1500372082.92,16029,17.75,74660.0,9.63,4.57,4.67,0,*7E
1500372084.13,16030,17.75,74656.5,9.63,4.57,4.75,0,*75
1500372085.39,16031,17.75,74658.3,9.65,4.59,4.71,0,*78
1500372086.62,16032,17.75,74660.0,9.65,4.53,4.59,0,*7B
1500372087.82,16033,17.75,74662.8,9.63,4.49,4.63,0,*7E
1500372089.05,16034,17.75,74656.8,9.65,4.53,4.67,0,*70
1500372090.25,16035,17.75,74660.5,9.63,4.53,4.67,0,*77
1500372091.46,16036,17.75,74658.5,9.63,4.57,4.75,0,*73
1500372092.69,16037,17.75,74658.5,9.61,4.63,4.85,0,*78
1500372093.92,16038,17.75,74656.0,9.61,4.63,4.85,0,*77
1500372095.14,16039,17.75,74656.3,9.61,4.79,4.89,0,*71
1500372096.37,16040,17.75,74656.3,9.61,4.75,4.89,0,*73
1500372097.57,16041,17.75,74658.5,9.63,4.53,4.63,0,*70
1500372098.75,16042,17.75,74658.8,9.63,4.37,4.53,0,*72
1500372099.93,16043,17.75,74656.0,9.59,4.27,4.27,0,*78
1500372101.11,16044,17.75,74656.0,9.59,4.37,4.41,0,*7E
1500372102.31,16045,17.75,74658.5,9.61,4.49,4.49,0,*75
1500372103.5,16046,17.75,74658.3,9.59,4.49,4.59,0,*7C
1500372104.68,16047,17.75,74656.3,9.59,4.37,4.49,0,*75
1500372105.86,16048,17.75,74658.3,9.59,4.45,4.45,0,*73
1500372107.06,16049,17.75,74658.0,9.61,4.41,4.49,0,*71
1500372108.29,16050,17.75,74656.5,9.57,4.23,4.31,0,*77
1500372109.52,16051,17.75,74658.3,9.57,4.31,4.33,0,*77
1500372110.74,16052,17.75,74654.3,9.57,4.49,4.59,0,*77
1500372111.96,16053,17.75,74654.3,9.57,4.57,4.59,0,*79
1500372113.13,16054,17.75,74654.3,9.55,4.45,4.49,0,*7E
1500372114.36,16055,17.75,74658.0,9.57,4.57,4.67,0,*72
1500372115.56,16056,17.75,74652.8,9.55,4.57,4.67,0,*73
1500372116.73,16057,17.75,74656.3,9.55,4.45,4.45,0,*71
1500372117.91,16058,17.75,74656.8,9.55,4.45,4.41,0,*7A
1500372119.08,16059,17.75,74654.8,9.55,4.45,4.49,0,*73
1500372120.3,16060,17.75,74658.3,9.55,4.79,4.79,0,*75
1500372121.56,16061,17.75,74658.3,9.57,4.59,4.67,0,*7B
1500372122.76,16062,17.75,74658.3,9.55,4.81,4.79,0,*70
1500372124.01,16063,17.75,74656.0,9.57,4.67,4.59,0,*79
1500372125.18,16064,17.75,74654.5,9.55,4.49,4.45,0,*7D
1500372126.35,16065,17.75,74658.0,9.55,4.23,4.19,0,*79
1500372127.52,16066,17.75,74658.3,9.55,4.11,4.11,0,*73
1500372128.69,16067,17.75,74656.0,9.55,4.23,4.23,0,*72
1500372129.89,16068,17.75,74658.3,9.53,4.37,4.27,0,*7A
1500372131.15,16069,17.75,74658.3,9.49,4.59,4.59,0,*71
1500372132.4,16070,17.75,74656.5,9.49,4.75,4.63,0,*7E
1500372133.6,16071,17.75,74656.5,9.53,4.53,4.45,0,*74
1500372134.8,16072,17.75,74662.3,9.49,4.33,4.27,0,*7E
1500372136.01,16073,17.75,74662.0,9.49,4.37,4.23,0,*7F
1500372137.18,16074,17.75,74662.0,9.47,3.89,3.55,0,*72
1500372138.35,16075,17.75,74656.5,9.47,4.27,4.11,0,*77
1500372139.53,16076,17.75,74660.0,9.47,4.37,4.23,0,*74
1500372140.74,16077,17.75,74660.8,9.45,4.37,4.23,0,*77
1500372141.94,16078,17.75,74660.3,9.47,4.31,4.11,0,*7D
1500372143.11,16079,17.75,74660.5,9.47,4.33,4.11,0,*7E
1500372144.36,16080,17.75,74662.8,9.45,3.97,3.75,0,*76
1500372145.59,16081,17.75,74662.0,9.45,4.11,4.01,0,*7A
1500372146.82,16082,17.75,74664.0,9.45,4.31,4.19,0,*72
1500372148.02,16083,17.75,74666.0,9.45,4.33,4.19,0,*71
1500372149.22,16084,17.75,74660.8,9.45,4.49,4.37,0,*77
1500372150.43,16085,17.75,74660.0,9.45,4.57,4.45,0,*7C
1500372151.63,16086,17.75,74660.0,9.45,4.11,4.07,0,*7B
1500372152.81,16087,17.75,74662.5,9.43,4.19,4.11,0,*73
1500372154.04,16088,17.75,74660.0,9.45,4.23,4.31,0,*71
1500372155.25,16089,17.75,74662.8,9.45,4.33,4.37,0,*77
1500372156.43,16090,17.75,74662.3,9.47,4.37,4.49,0,*70
1500372157.65,16091,17.75,74662.8,9.45,4.49,4.59,0,*7B
1500372158.88,16092,17.75,74658.0,9.47,4.63,4.71,0,*78
1500372160.11,16093,17.75,74660.0,9.45,4.67,4.81,0,*70
1500372161.34,16094,17.75,74660.8,9.45,4.71,4.81,0,*70
1500372162.54,16095,17.75,74658.0,9.47,4.71,4.81,0,*73
1500372163.75,16096,17.75,74660.0,9.49,4.23,4.37,0,*74
1500372164.95,16097,17.75,74662.5,9.47,4.41,4.63,0,*7E
1500372166.13,16098,17.75,74662.3,9.47,4.41,4.53,0,*72
1500372167.36,16099,17.75,74662.5,9.47,4.63,4.75,0,*77
1500372168.56,16100,17.75,74658.3,9.47,4.53,4.71,0,*71
1500372169.74,16101,17.75,74662.5,9.47,4.41,4.53,0,*73
1500372170.92,16102,17.75,74660.0,9.47,4.27,4.41,0,*73
1500372172.12,16103,17.75,74662.0,9.47,4.53,4.63,0,*71
1500372173.3,16104,17.75,74660.8,9.47,4.15,4.27,0,*74
1500372174.48,16105,17.75,74660.5,9.47,4.27,4.33,0,*71
1500372175.66,16106,17.75,74660.5,9.47,4.33,4.37,0,*73
1500372176.86,16107,17.75,74658.8,9.47,4.53,4.59,0,*7C
1500372178.07,16108,17.75,74660.0,9.49,4.37,4.37,0,*77
1500372179.26,16109,17.75,74660.0,9.49,4.41,4.49,0,*7E
1500372180.48,16110,17.75,74658.3,9.49,4.37,4.37,0,*7E
1500372181.67,16111,17.75,74664.0,9.49,4.23,4.27,0,*7B
1500372182.88,16112,17.75,74660.5,9.53,4.41,4.41,0,*77
1500372184.08,16113,17.75,74660.3,9.49,4.37,4.49,0,*74
1500372185.28,16114,17.75,74662.0,9.49,4.23,4.33,0,*7B
1500372186.49,16115,17.75,74660.8,9.49,4.27,4.41,0,*7B
1500372187.7,16116,17.75,74662.8,9.49,4.15,4.33,0,*7C
1500372188.89,16117,17.75,74662.5,9.55,4.49,4.67,0,*78
1500372190.09,16118,17.75,74658.8,9.55,4.45,4.59,0,*76
1500372191.3,16119,17.75,74660.3,9.55,4.11,4.31,0,*78
1500372192.47,16120,17.75,74662.0,9.55,4.41,4.57,0,*77
1500372193.68,16121,17.75,74658.5,9.55,4.41,4.71,0,*72
1500372194.88,16122,17.75,74660.0,9.55,4.41,4.79,0,*79
1500372196.1,16123,17.75,74660.5,9.57,4.45,4.79,0,*7E
1500372197.34,16124,17.75,74660.5,9.57,4.33,4.71,0,*70
1500372198.56,16125,17.75,74660.0,9.55,3.49,3.79,0,*76
1500372199.73,16126,17.75,74662.3,9.55,3.59,4.07,0,*7A
1500372200.93,16127,17.75,74664.8,9.55,3.59,3.97,0,*75
1500372202.16,16128,17.75,74660.0,9.55,3.07,3.41,0,*7A
1500372203.41,16129,17.75,74662.0,9.53,2.55,2.85,0,*72
1500372204.63,16130,17.75,74662.8,9.49,2.69,2.99,0,*73
1500372205.86,16131,17.75,74660.5,9.49,3.07,3.29,0,*71
1500372207.09,16132,17.75,74658.3,9.47,2.69,2.89,0,*7E
1500372208.34,16133,17.75,74660.8,9.45,2.77,3.03,0,*71
1500372209.55,16134,17.75,74662.8,9.45,2.95,3.25,0,*7E
1500372210.78,16135,17.75,74662.0,9.43,3.15,3.37,0,*73
1500372211.96,16136,17.75,74660.5,9.43,3.25,3.59,0,*7B
1500372213.2,16137,17.75,74658.8,9.43,3.41,3.79,0,*7A
1500372214.42,16138,17.75,74658.5,9.41,3.97,4.27,0,*70
1500372215.62,16139,17.75,74658.5,9.43,4.01,4.33,0,*7E
1500372216.83,16140,17.75,74656.3,9.43,3.97,4.23,0,*79
1500372218.01,16141,17.75,74656.8,9.43,3.85,4.07,0,*7D
1500372219.27,16142,17.75,74656.3,9.41,3.71,4.05,0,*75
1500372220.44,16143,17.75,74656.3,9.43,3.85,4.11,0,*78
1500372221.67,16144,17.75,74660.3,9.43,3.37,3.53,0,*77
1500372222.92,16145,17.75,74656.8,9.41,2.77,3.03,0,*74
1500372224.18,16146,17.75,74658.0,9.41,3.23,3.33,0,*74
1500372225.45,16147,17.75,74656.0,9.41,3.15,3.33,0,*70
1500372226.67,16148,17.75,74658.5,9.39,3.29,3.53,0,*79
1500372227.89,16149,17.75,74656.5,9.39,3.23,3.29,0,*7F
1500372229.08,16150,17.75,74658.0,9.37,3.33,3.59,0,*7F
1500372230.28,16151,17.75,74658.8,9.37,3.81,4.01,0,*7D
1500372231.53,16152,17.75,74660.3,9.35,3.37,3.41,0,*72
1500372232.76,16153,17.75,74658.8,9.35,3.67,3.89,0,*72
1500372233.95,16154,17.75,74662.8,9.33,3.89,4.07,0,*72
1500372235.2,16155,17.75,74660.5,9.35,3.67,3.79,0,*7B
1500372236.42,16156,17.75,74658.3,9.35,3.97,4.11,0,*7E
1500372237.61,16157,17.75,74658.3,9.33,3.37,3.55,0,*74
1500372238.78,16158,17.75,74662.8,9.33,3.63,3.85,0,*77
1500372240.01,16159,17.75,74656.5,9.33,3.79,4.01,0,*76
1500372241.24,16160,17.75,74658.0,9.33,3.79,3.97,0,*74
1500372242.44,16161,17.75,74658.3,9.35,4.11,4.33,0,*73
1500372243.64,16162,17.75,74660.3,9.35,4.23,4.49,0,*7C
1500372244.85,16163,17.75,74656.5,9.33,4.37,4.67,0,*72
1500372246.05,16164,17.75,74658.8,9.33,4.49,4.71,0,*7B
1500372247.28,16165,17.75,74660.3,9.35,4.37,4.59,0,*7F
1500372248.45,16166,17.75,74656.8,9.37,4.27,4.53,0,*75
1500372249.66,16167,17.75,74658.5,9.37,4.41,4.71,0,*74
1500372250.83,16168,17.75,74660.8,9.37,4.53,4.81,0,*77
1500372252.05,16169,17.75,74660.3,9.37,4.31,4.59,0,*77
1500372253.28,16170,17.75,74660.5,9.39,4.05,4.37,0,*7E
1500372254.51,16171,17.75,74662.5,9.39,4.53,4.75,0,*7A
1500372255.74,16172,17.75,74658.8,9.39,4.59,4.85,0,*7C
1500372256.97,16173,17.75,74660.5,9.41,4.57,4.97,0,*7F
1500372258.23,16174,17.75,74658.5,9.41,4.67,5.01,0,*75
1500372259.49,16175,17.75,74658.3,9.41,4.75,4.97,0,*79
1500372260.75,16176,17.75,74656.0,9.41,4.63,4.79,0,*7D
1500372261.96,16177,17.75,74658.0,9.41,4.27,4.45,0,*73
1500372263.19,16178,17.75,74658.8,9.41,4.45,4.67,0,*78
1500372264.42,16179,17.75,74658.8,9.43,4.67,4.79,0,*74
1500372265.63,16180,17.75,74660.3,9.43,4.57,4.71,0,*79
1500372266.83,16181,17.75,74660.5,9.43,4.45,4.59,0,*71
1500372268.09,16182,17.75,74658.0,9.45,4.67,4.67,0,*79
1500372269.35,16183,17.75,74662.0,9.45,4.71,4.79,0,*70
1500372270.55,16184,17.75,74660.5,9.47,4.71,4.81,0,*72
1500372271.82,16185,17.75,74656.5,9.45,4.71,4.71,0,*7E
1500372273.05,16186,17.75,74660.5,9.45,4.57,4.67,0,*7E
1500372274.23,16187,17.75,74660.3,9.47,4.37,4.37,0,*7E
1500372275.44,16188,17.75,74664.5,9.47,3.79,3.81,0,*76
1500372276.62,16189,17.75,74662.8,9.47,3.89,3.93,0,*7B
1500372277.85,16190,17.75,74660.5,9.45,3.89,3.97,0,*75
1500372279.08,16191,17.75,74660.5,9.45,3.79,3.89,0,*74
1500372280.29,16192,17.75,74662.8,9.45,4.23,4.33,0,*79
1500372281.46,16193,17.75,74656.5,9.47,4.49,4.53,0,*70
1500372282.69,16194,17.75,74662.0,9.45,4.57,4.67,0,*7D
1500372283.96,16195,17.75,74658.0,9.45,4.67,4.71,0,*78
1500372285.16,16196,17.75,74656.0,9.47,4.53,4.75,0,*7A
1500372286.37,16197,17.75,74658.3,9.47,4.53,4.75,0,*7B
1500372287.57,16198,17.75,74660.5,9.47,4.59,4.81,0,*75
1500372288.74,16199,17.75,74660.0,9.47,4.49,4.81,0,*75
1500372289.94,16200,17.75,74658.8,9.47,4.63,4.85,0,*7A
1500372291.19,16201,17.75,74658.3,9.49,4.63,4.97,0,*76
1500372292.45,16202,17.75,74658.8,9.49,4.63,4.93,0,*71
1500372293.68,16203,17.75,74660.0,9.53,4.79,5.07,0,*7C
1500372294.92,16204,17.75,74660.8,9.49,4.71,5.07,0,*78
1500372296.15,16205,17.75,74658.0,9.53,4.79,5.19,0,*75
1500372297.35,16206,17.75,74656.3,9.53,4.89,5.37,0,*75
1500372298.58,16207,17.75,74658.8,9.53,4.89,5.27,0,*75
1500372299.81,16208,17.75,74656.3,9.53,4.97,5.33,0,*70
1500372301.01,16209,17.75,74658.8,9.55,5.05,5.29,0,*76
1500372302.18,16210,17.75,74660.3,9.55,5.15,5.41,0,*71
1500372303.35,16211,17.75,74662.0,9.55,4.81,5.11,0,*79
1500372304.61,16212,17.75,74658.5,9.57,4.67,4.79,0,*7F
1500372305.78,16213,17.75,74658.8,9.55,4.33,4.49,0,*7E
1500372306.98,16214,17.75,74660.0,9.55,4.71,4.81,0,*7B
1500372308.19,16215,17.75,74658.5,9.55,4.71,4.89,0,*72
1500372309.42,16216,17.75,74658.3,9.57,4.93,5.23,0,*7E
1500372310.63,16217,17.75,74662.8,9.55,5.05,5.23,0,*73
1500372311.84,16218,17.75,74660.5,9.55,5.01,5.15,0,*7D
1500372313.07,16219,17.75,74660.3,9.57,5.01,5.15,0,*7E
1500372314.31,16220,17.75,74662.3,9.57,5.05,5.23,0,*75
1500372315.52,16221,17.75,74660.8,9.59,4.97,5.07,0,*76
1500372316.77,16222,17.75,74662.5,9.57,4.59,4.59,0,*73
1500372317.95,16223,17.75,74662.8,9.55,4.33,4.41,0,*75
1500372319.12,16224,17.75,74662.3,9.55,4.49,4.57,0,*78
1500372320.35,16225,17.75,74656.0,9.55,4.79,4.79,0,*76
1500372321.52,16226,17.75,74662.0,9.55,4.81,4.89,0,*7D
1500372322.72,16227,17.75,74660.5,9.55,5.05,5.15,0,*75
1500372323.89,16228,17.75,74658.5,9.55,5.15,5.15,0,*7B
1500372325.11,16229,17.75,74660.3,9.53,5.19,5.19,0,*7C
1500372326.33,16230,17.75,74658.3,9.57,5.27,5.23,0,*74
1500372327.53,16231,17.75,74660.3,9.55,5.27,5.23,0,*77
1500372328.77,16232,17.75,74662.8,9.57,5.27,5.27,0,*72
1500372329.94,16233,17.75,74662.8,9.55,5.37,5.29,0,*7E
1500372331.14,16234,17.75,74658.0,9.55,5.11,5.05,0,*73
1500372332.37,16235,17.75,74660.8,9.57,4.81,4.79,0,*72
1500372333.6,16236,17.75,74660.5,9.55,5.01,4.93,0,*7E
1500372334.83,16237,17.75,74656.3,9.57,5.11,5.05,0,*72
1500372336.03,16238,17.75,74658.3,9.55,4.93,4.81,0,*79
1500372337.26,16239,17.75,74662.8,9.57,4.81,4.79,0,*7E
1500372338.46,16240,17.75,74658.3,9.55,4.81,4.79,0,*72
1500372339.68,16241,17.75,74660.0,9.55,4.79,4.79,0,*74
1500372340.88,16242,17.75,74660.8,9.55,5.11,5.05,0,*72
1500372342.11,16243,17.75,74658.8,9.55,5.05,5.01,0,*72
1500372343.29,16244,17.75,74656.3,9.55,5.15,5.11,0,*75
1500372344.47,16245,17.75,74660.5,9.55,5.23,5.15,0,*75
1500372345.67,16246,17.75,74660.0,9.55,5.27,5.23,0,*77
1500372346.86,16247,17.75,74656.5,9.55,5.27,5.15,0,*73
1500372348.04,16248,17.75,74660.8,9.55,5.29,5.23,0,*77
1500372349.24,16249,17.75,74662.5,9.55,4.89,4.67,0,*7C
1500372350.44,16250,17.75,74658.0,9.53,4.37,4.15,0,*72
1500372351.67,16251,17.75,74662.8,9.49,4.27,4.05,0,*78
1500372352.9,16252,17.75,74662.0,9.55,4.71,4.59,0,*7C
1500372354.07,16253,17.75,74660.5,9.55,5.11,4.89,0,*77
1500372355.3,16254,17.75,74662.0,9.53,5.07,4.79,0,*7E
1500372356.53,16255,17.75,74656.0,9.53,5.01,4.85,0,*7A
1500372357.76,16256,17.75,74662.0,9.53,4.75,4.45,0,*77
1500372358.98,16257,17.75,74656.5,9.53,4.75,4.45,0,*76
1500372360.23,16258,17.75,74662.0,9.49,4.75,4.59,0,*7F
1500372361.46,16259,17.75,74658.8,9.49,4.63,4.37,0,*71
1500372362.69,16260,17.75,74658.8,9.49,4.59,4.33,0,*76
1500372363.9,16261,17.75,74660.0,9.49,4.53,4.23,0,*7C
1500372365.14,16262,17.75,74658.3,9.49,4.75,4.59,0,*76
1500372366.35,16263,17.75,74658.0,9.47,4.81,4.63,0,*7B
1500372367.55,16264,17.75,74660.0,9.47,4.85,4.63,0,*78
1500372368.75,16265,17.75,74658.8,9.47,4.85,4.71,0,*7A
1500372370.01,16266,17.75,74660.3,9.45,4.79,4.71,0,*78
1500372371.24,16267,17.75,74658.8,9.45,4.93,4.81,0,*72
1500372372.49,16268,17.75,74658.3,9.45,4.79,4.59,0,*7C
1500372373.72,16269,17.75,74660.0,9.47,4.75,4.59,0,*73
1500372374.92,16270,17.75,74658.3,9.47,4.81,4.63,0,*79
1500372376.14,16271,17.75,74658.0,9.47,4.75,4.63,0,*73
1500372377.35,16272,17.75,74658.5,9.45,5.15,5.11,0,*71
1500372378.53,16273,17.75,74658.5,9.47,5.41,5.23,0,*72
1500372379.72,16274,17.75,74660.5,9.47,5.23,5.23,0,*71
1500372380.95,16275,17.75,74662.5,9.47,5.05,4.97,0,*7A
1500372382.21,16276,17.75,74660.3,9.45,5.05,5.01,0,*75
1500372383.44,16277,17.75,74658.3,9.49,4.85,4.75,0,*73
1500372384.62,16278,17.75,74658.8,9.47,4.53,4.49,0,*76
1500372385.85,16279,17.75,74660.3,9.47,4.71,4.59,0,*76
1500372387.02,16280,17.75,74660.5,9.47,4.41,4.41,0,*7A
1500372388.19,16281,17.75,74660.8,9.47,4.49,4.49,0,*7B
1500372389.37,16282,17.75,74658.8,9.47,4.37,4.33,0,*7C
1500372390.6,16283,17.75,74658.8,9.45,4.57,4.59,0,*75
1500372391.8,16284,17.75,74656.8,9.47,4.85,4.79,0,*7D
1500372393.01,16285,17.75,74662.5,9.47,4.85,4.75,0,*70
1500372394.18,16286,17.75,74662.0,9.47,4.81,4.85,0,*78
1500372395.41,16287,17.75,74662.8,9.45,4.89,4.93,0,*74
1500372396.62,16288,17.75,74660.8,9.47,4.85,4.93,0,*75
1500372397.82,16289,17.75,74660.0,9.47,4.85,4.93,0,*74
1500372398.99,16290,17.75,74660.0,9.47,4.81,4.85,0,*7F
1500372400.17,16291,17.75,74662.3,9.47,4.81,4.85,0,*7E
1500372401.37,16292,17.75,74660.5,9.49,4.85,5.07,0,*7C
1500372402.61,16293,17.75,74660.8,9.49,5.05,5.07,0,*74
1500372403.81,16294,17.75,74662.8,9.49,5.07,5.19,0,*7E
1500372405.07,16295,17.75,74660.3,9.49,4.93,5.05,0,*7E
1500372406.28,16296,17.75,74662.8,9.53,5.11,5.23,0,*79
1500372407.5,16297,17.75,74656.8,9.53,5.07,5.27,0,*7B
1500372408.76,16298,17.75,74660.5,9.53,4.97,5.27,0,*7C
1500372409.96,16299,17.75,74664.0,9.53,5.19,5.37,0,*7B
1500372411.2,16300,17.75,74662.3,9.53,5.01,5.23,0,*76
1500372412.43,16301,17.75,74660.5,9.53,5.01,5.19,0,*7E
1500372413.64,16302,17.75,74660.8,9.53,4.89,5.11,0,*74
1500372414.87,16303,17.75,74662.8,9.57,5.01,5.15,0,*74
1500372416.07,16304,17.75,74662.0,9.55,4.81,5.05,0,*79
1500372417.3,16305,17.75,74664.0,9.57,4.89,5.05,0,*72
1500372418.5,16306,17.75,74660.0,9.55,5.11,5.27,0,*73
1500372419.67,16307,17.75,74662.3,9.55,5.15,5.29,0,*78
1500372420.87,16308,17.75,74666.3,9.55,5.11,5.27,0,*7D
1500372422.04,16309,17.75,74664.3,9.55,5.11,5.15,0,*7D
1500372423.24,16310,17.75,74662.0,9.55,4.79,4.81,0,*76
1500372424.44,16311,17.75,74662.5,9.57,4.81,4.81,0,*72
1500372425.67,16312,17.75,74660.5,9.57,5.01,5.15,0,*74
1500372426.93,16313,17.75,74662.3,9.57,4.93,5.01,0,*7A
1500372428.1,16314,17.75,74662.8,9.55,4.89,4.89,0,*75
1500372429.36,16315,17.75,74660.8,9.57,4.67,4.71,0,*71
1500372430.59,16316,17.75,74662.8,9.59,4.93,4.97,0,*7F
1500372431.79,16317,17.75,74660.5,9.57,4.89,4.81,0,*7C
1500372433.02,16318,17.75,74660.5,9.55,4.67,4.71,0,*7E
1500372434.28,16319,17.75,74662.3,9.57,4.93,5.01,0,*70
1500372435.54,16320,17.75,74660.3,9.57,5.05,5.05,0,*70
1500372436.8,16321,17.75,74662.5,9.57,5.01,5.01,0,*71
1500372438.0,16322,17.75,74662.3,9.57,4.89,4.81,0,*7A
1500372439.2,16323,17.75,74662.5,9.57,4.81,4.81,0,*73
1500372440.43,16324,17.75,74660.5,9.57,4.81,4.75,0,*7F
1500372441.63,16325,17.75,74664.0,9.55,4.81,4.67,0,*7F
1500372442.86,16326,17.75,74662.5,9.57,4.89,4.71,0,*71
1500372444.09,16327,17.75,74662.5,9.57,5.01,4.81,0,*7E
1500372445.29,16328,17.75,74662.8,9.55,5.11,4.93,0,*71
1500372446.55,16329,17.75,74660.8,9.57,5.01,4.79,0,*77
1500372447.78,16330,17.75,74662.5,9.57,5.15,5.01,0,*74
1500372448.99,16331,17.75,74666.3,9.59,5.19,5.05,0,*73
1500372450.19,16332,17.75,74660.8,9.59,5.15,4.93,0,*72
1500372451.36,16333,17.75,74660.8,9.59,5.07,4.85,0,*77
1500372452.58,16334,17.75,74664.5,9.59,5.19,4.93,0,*78
1500372453.79,16335,17.75,74660.0,9.61,5.33,5.07,0,*76
1500372454.96,16336,17.75,74662.5,9.59,5.07,4.89,0,*7E
1500372456.2,16337,17.75,74660.8,9.61,5.19,5.01,0,*7A
1500372457.37,16338,17.75,74660.8,9.63,4.85,4.53,0,*75
1500372458.6,16339,17.75,74660.3,9.61,4.75,4.41,0,*7A
1500372459.8,16340,17.75,74660.8,9.61,4.53,4.27,0,*70
1500372461.01,16341,17.75,74666.3,9.59,4.59,4.33,0,*75
1500372462.19,16342,17.75,74664.3,9.59,4.85,4.53,0,*71
1500372463.45,16343,17.75,74664.5,9.61,4.97,4.79,0,*70
1500372464.7,16344,17.75,74662.5,9.61,4.97,4.79,0,*77
1500372465.96,16345,17.75,74662.3,9.61,4.97,4.67,0,*79
1500372467.17,16346,17.75,74662.5,9.63,4.89,4.75,0,*74
1500372468.37,16347,17.75,74666.5,9.63,5.01,4.89,0,*77
1500372469.6,16348,17.75,74664.0,9.63,4.97,4.75,0,*75
1500372470.86,16349,17.75,74664.0,9.65,5.01,4.79,0,*70
1500372472.09,16350,17.75,74662.3,9.63,5.01,4.75,0,*72
1500372473.32,16351,17.75,74662.0,9.65,5.05,4.81,0,*7A
1500372474.55,16352,17.75,74660.8,9.67,4.93,4.59,0,*70
1500372475.78,16353,17.75,74664.0,9.67,4.93,4.59,0,*71
1500372476.98,16354,17.75,74664.8,9.67,4.93,4.57,0,*78
1500372478.18,16355,17.75,74662.0,9.69,4.85,4.49,0,*7F
1500372479.41,16356,17.75,74664.5,9.69,4.75,4.37,0,*7A
1500372480.64,16357,17.75,74664.5,9.69,4.71,4.33,0,*7B
1500372481.84,16358,17.75,74664.8,9.67,4.49,4.05,0,*74
1500372483.04,16359,17.75,74666.8,9.69,4.37,3.85,0,*7D
1500372484.25,16360,17.75,74666.5,9.69,4.85,4.33,0,*74
1500372485.45,16361,17.75,74662.8,9.69,4.81,4.33,0,*71
1500372486.67,16362,17.75,74664.0,9.73,4.75,4.27,0,*77
1500372487.86,16363,17.75,74664.3,9.71,4.67,4.19,0,*7A
1500372489.06,16364,17.75,74664.3,9.71,4.79,4.19,0,*72
1500372490.25,16365,17.75,74666.3,9.71,4.67,4.15,0,*70
1500372491.51,16366,17.75,74666.3,9.73,4.63,4.05,0,*74
1500372492.71,16367,17.75,74662.5,9.73,4.41,3.81,0,*7E
1500372493.91,16368,17.75,74664.5,9.73,4.49,3.81,0,*79
1500372495.14,16369,17.75,74662.0,9.73,4.41,3.67,0,*78
1500372496.39,16370,17.75,74664.3,9.77,4.31,3.49,0,*7F
1500372497.64,16371,17.75,74664.0,9.77,4.31,3.53,0,*75
1500372498.85,16372,17.75,74664.8,9.79,4.23,3.45,0,*7C
1500372500.05,16373,17.75,74664.0,9.77,4.19,3.25,0,*7C
1500372501.25,16374,17.75,74666.3,9.77,4.11,3.29,0,*7F
1500372502.44,16375,17.75,74664.8,9.77,4.45,3.59,0,*78
1500372503.61,16376,17.75,74664.8,9.79,4.49,3.63,0,*70
1500372504.82,16377,17.75,74666.8,9.79,4.45,3.45,0,*79
1500372505.99,16378,17.75,74666.3,9.79,4.23,3.29,0,*7C
1500372507.2,16379,17.75,74664.5,9.79,4.15,3.23,0,*72
1500372508.42,16380,17.75,74664.5,9.79,3.97,3.15,0,*7C
1500372509.63,16381,17.75,74664.3,9.79,4.11,3.23,0,*71
1500372510.83,16382,17.75,74666.8,9.79,4.33,3.53,0,*75
1500372512.0,16383,17.75,74666.8,9.79,4.37,3.55,0,*76
1500372513.22,16384,17.75,74662.5,9.79,4.27,3.41,0,*75
1500372514.47,16385,17.75,74664.8,9.81,3.97,3.15,0,*7E
1500372515.7,16386,17.75,74664.5,9.81,3.79,2.91,0,*70
1500372516.9,16387,17.75,74664.8,9.81,3.89,2.95,0,*7A
1500372518.13,16388,17.75,74666.5,9.83,4.05,3.11,0,*79
1500372519.33,16389,17.75,74660.0,9.83,4.19,3.23,0,*74
1500372520.55,16390,17.75,74662.5,9.83,4.01,3.07,0,*73
1500372521.73,16391,17.75,74664.5,9.83,3.59,2.61,0,*79
1500372522.93,16392,17.75,74660.0,9.85,3.25,2.27,0,*75
1500372524.16,16393,17.75,74664.8,9.83,3.49,2.47,0,*7E
1500372525.38,16394,17.75,74664.5,9.85,3.33,2.35,0,*77
1500372526.62,16395,17.75,74664.8,9.85,3.11,1.89,0,*72
1500372527.82,16396,17.75,74660.8,9.83,2.89,1.75,0,*74
1500372529.03,16397,17.75,74662.3,9.83,3.07,1.75,0,*72